Home   Weather   Shawinigan   Past weeks
Flag for Canada

Past Weather in Shawinigan, Quebec, Canada — Yesterday and Last 2 Weeks

Now
38 °F

Chilly.


Feels Like: 38 °F
Forecast: 47 / 33 °F
Wind: 1 mph from East

Location: Shawinigan CS

Current Time: Apr 24, 2019 at 8:07:27 pm

Latest Report: Apr 24, 2019 at 7:00 pm


Visibility: N/A

Pressure: 29.84 "Hg

Humidity: 88%

Dew Point: 35 °F

Location of ShawiniganLocation

Past Weather in Shawinigan — Graph

°F

Shawinigan Temperature Yesterday

Maximum temperature yesterday: 52 °F (at 2:00 pm)
Minimum temperature yesterday: 36 °F (at 5:00 am)
Average temperature yesterday: 44 °F

High & Low Weather Summary for the Past Weeks

 TemperatureHumidityPressure
High61 °F (Apr 22, 4:00 pm)100% (Apr 15, 6:00 am)30.28 "Hg (Apr 15, 6:00 am)
Low24 °F (Apr 11, 6:00 am)17% (Apr 22, 5:00 pm)29.21 "Hg (Apr 15, 11:00 am)
Average40 °F70%29.90 "Hg
* Reported Apr 9 7:00 pm — Apr 24 7:00 pm, Shawinigan. Weather by CustomWeather, © 2019

Note: Actual official high and low records may vary slightly from our data, if they occured in-between our weather recording intervals... More about our weather records

Advertising

Shawinigan Weather History for the Previous 24 Hours

Scroll right to see more
 ConditionsComfort  
Time TempWeatherWind HumidityBarometerVisibility
7:00 pm
Wed, Apr 24
38 °FChilly.1 mph88%29.84 "HgN/A
6:00 pm38 °FChilly.2 mph93%29.83 "HgN/A
5:00 pm38 °FChilly.5 mph95%29.80 "HgN/A
4:00 pm38 °FChilly.8 mph89%29.77 "HgN/A
3:00 pm36 °FChilly.8 mph100%29.75 "HgN/A
2:00 pm38 °FChilly.7 mph95%29.74 "HgN/A
1:00 pm37 °FChilly.9 mph95%29.71 "HgN/A
12:00 pm37 °FChilly.9 mph96%29.70 "HgN/A
11:00 am36 °FChilly.8 mph96%29.68 "HgN/A
10:00 am36 °FChilly.8 mph95%29.67 "HgN/A
9:00 am35 °FChilly.9 mph95%29.66 "HgN/A
8:00 am35 °FChilly.8 mph95%29.64 "HgN/A
7:00 am35 °FChilly.13 mph96%29.63 "HgN/A
6:00 am35 °FChilly.10 mph94%29.61 "HgN/A
5:00 am35 °FChilly.12 mph94%29.61 "HgN/A
4:00 am36 °FChilly.12 mph94%29.61 "HgN/A
3:00 am36 °FChilly.13 mph93%29.62 "HgN/A
2:00 am35 °FChilly.16 mph98%29.64 "HgN/A
1:00 am37 °FChilly.15 mph91%29.67 "HgN/A
12:00 am38 °FChilly.13 mph89%29.72 "HgN/A
11:00 pm
Tue, Apr 23
38 °FChilly.13 mph88%29.74 "HgN/A
10:00 pm39 °FChilly.12 mph85%29.78 "HgN/A
9:00 pm41 °FQuite cool.12 mph78%29.82 "HgN/A
8:00 pm42 °FQuite cool.13 mph73%29.83 "HgN/A
Weather by CustomWeather, © 2019

See weather overview